Wind_Speed
11 10 10 9 6 4 3 3 3 3 2 1 2 2 2 3 3 4 3 4 4 3 4 6 6 7 8 8 9 6 6 8 10 11 9 8 8 9 9 8 7 7 6
12 10 10 8 5 4 4 4 4 4 3 2 2 3 3 4 5 6 6 7 7 7 8 8 9 9 10 11 11 12 13 14 12 11 11 8 2 5 6 8 11 10 9
13 10 10 8 6 5 5 6 6 6 7 7 7 7 7 7 7 8 8 8 9 10 10 10 10 10 11 11 12 12 13 14 14 12 11 9 6 6 7 9 12 12 11
15 11 10 9 8 8 8 8 8 8 8 7 7 7 7 7 8 9 9 9 10 10 11 11 11 12 12 12 12 12 13 13 13 14 12 12 10 6 5 8 12 12 13
15 11 11 11 10 10 10 8 8 7 7 7 7 7 8 9 9 9 10 10 10 10 11 12 12 12 13 13 13 14 14 14 14 14 13 12 10 9 10 10 12 16 14
17 12 13 13 12 11 10 8 7 7 6 6 6 7 7 8 9 9 10 10 11 11 12 12 13 13 13 13 13 14 14 14 14 14 14 13 13 12 14 16 18 14 16
17 15 15 14 13 11 10 8 7 6 5 6 7 7 8 9 9 10 10 10 11 11 12 12 13 13 13 14 14 14 14 13 14 13 13 13 14 14 14 15 17 17 16
17 17 16 15 13 11 10 8 6 5 6 7 7 8 9 10 11 12 13 13 13 12 13 13 13 14 15 15 15 15 14 14 14 14 13 14 13 14 14 17 20 23 23
18 17 16 15 14 11 9 7 6 6 6 7 8 8 10 13 16 17 18 18 18 17 17 17 18 18 18 18 18 18 18 17 16 15 15 15 15 15 17 19 23 24 26
18 17 17 15 14 12 9 8 7 8 7 7 7 11 14 16 18 20 20 20 20 19 19 19 19 20 20 19 19 19 19 18 18 18 17 17 17 18 18 18 20 24 27
23 21 20 18 15 13 11 9 9 8 7 6 10 12 14 16 18 19 20 20 20 20 21 21 23 24 24 23 24 24 24 24 24 24 24 23 22 20 19 20 22 23 25
27 24 22 20 17 15 12 11 10 9 8 7 9 11 13 15 17 19 20 20 20 21 21 22 23 23 24 24 25 25 26 26 26 27 28 28 28 27 25 24 24 24 25
28 26 25 21 18 16 14 13 12 9 7 6 7 9 11 13 16 19 20 21 22 22 21 22 22 23 23 24 25 25 26 26 27 28 28 29 30 31 31 30 29 29 28
32 28 26 24 22 18 16 15 13 10 7 5 5 6 9 12 16 19 22 23 23 22 22 23 24 24 24 25 26 27 27 29 30 31 31 31 32 33 34 35 33 30 29
33 31 29 26 24 21 19 17 15 11 7 4 2 4 8 12 16 19 22 24 24 23 24 26 26 26 26 26 27 29 30 31 32 33 34 34 34 34 35 36 37 38 36
35 34 31 29 26 24 21 19 16 13 8 5 1 4 8 12 16 21 24 26 25 25 25 27 28 28 28 29 29 30 31 31 32 33 35 36 35 36 37 37 38 37 36
38 34 33 30 28 26 23 20 17 13 10 6 3 3 8 12 17 21 25 27 27 27 28 28 28 28 29 30 31 31 32 33 35 35 36 38 39 37 36 35 30 29 31
38 36 34 33 31 28 26 22 19 16 12 8 6 4 8 12 17 21 25 27 28 28 28 28 29 30 31 32 34 35 36 37 37 38 37 34 34 33 32 31 29 28 29
41 38 36 35 32 30 27 24 21 17 14 11 7 5 8 12 16 21 25 28 28 28 28 28 28 30 32 34 36 37 38 39 39 33 35 38 36 32 31 30 31 33 34
44 40 35 35 33 31 29 26 22 19 16 13 9 8 9 12 17 21 25 28 28 28 27 28 29 29 31 34 37 39 42 40 31 35 26 22 26 27 33 35 38 38 35
45 42 38 37 35 34 33 29 26 22 18 15 11 10 10 13 17 21 25 27 27 27 27 28 29 30 32 34 40 45 43 20 32 12 15 33 44 39 37 37 38 39 40
48 44 40 38 37 36 33 28 23 21 19 14 13 12 11 14 18 22 25 26 25 25 25 26 28 30 30 31 34 36 22 33 6 32 41 41 38 40 33 36 38 40 39
51 47 42 39 37 35 31 28 25 23 20 18 16 12 12 15 19 22 25 25 24 24 25 26 27 27 29 30 28 23 17 14 48 26 41 30 30 32 32 47 41 37 33
53 47 42 39 38 35 33 32 28 25 23 19 15 13 12 16 19 22 24 23 23 24 25 25 25 25 26 29 28 26 25 30 33 42 30 40 35 33 39 43 44 37 37
54 50 44 39 38 36 34 31 28 26 24 20 16 13 14 16 19 22 22 22 22 23 24 24 24 24 24 26 27 29 29 30 26 28 45 51 52 41 37 42 42 39 35
54 50 45 40 39 37 34 32 30 28 24 20 16 14 14 16 18 20 20 21 22 23 24 23 23 24 24 25 26 27 27 30 31 30 34 40 42 48 42 47 44 33 41
Wind_Direction
166 179 181 172 181 179 175 164 166 166 169 107 58 59 34 20 11 6 354 338 333 305 291 305 315 320 323 325 332 320 311 324 334 342 346 1 15 6 351 358 343 302 296
163 180 179 174 174 174 162 144 137 132 126 100 54 45 35 25 17 15 11 8 3 355 347 342 334 331 328 328 324 317 320 321 329 336 337 341 354 356 342 343 339 319 292
187 181 174 167 164 153 136 131 124 115 106 97 87 76 64 54 44 36 26 17 8 359 354 351 348 345 340 336 329 326 324 322 322 320 319 327 324 344 346 317 318 316 299
186 166 166 157 152 144 132 126 123 112 100 87 76 64 52 40 29 18 10 2 355 349 342 340 337 335 333 331 329 326 324 321 320 318 315 309 307 301 311 309 304 308 300
190 178 163 158 153 146 140 134 121 107 91 76 60 45 37 26 18 9 2 355 348 344 338 335 333 330 327 325 322 319 317 316 315 312 308 305 294 279 261 276 290 296 298
188 186 169 157 156 152 143 136 124 106 89 72 59 47 39 29 19 11 4 358 352 348 343 338 335 332 329 327 324 321 320 317 311 305 301 299 291 279 260 256 266 287 287
184 180 166 164 161 157 148 140 123 105 91 78 69 56 44 38 30 22 15 8 2 356 352 348 346 341 338 334 331 327 327 324 317 309 301 288 282 279 278 274 268 262 273
184 175 172 169 165 161 153 142 124 105 92 84 71 63 55 45 35 31 22 14 8 5 360 357 354 350 345 341 334 331 330 328 319 311 304 297 289 277 272 272 270 266 259
187 177 178 175 170 166 158 145 130 117 111 98 82 72 57 40 28 21 16 12 8 5 3 360 356 351 348 343 339 335 333 329 321 318 312 307 301 290 283 278 271 268 265
192 188 186 179 176 172 165 156 145 139 128 109 87 60 44 35 26 17 11 7 2 359 357 356 353 350 347 343 340 338 337 334 328 323 317 312 306 300 299 303 298 279 273
197 192 191 187 180 179 173 166 160 156 141 107 72 56 43 33 24 17 9 3 358 356 354 352 349 348 346 344 343 341 339 335 332 328 324 323 321 316 307 298 297 295 292
197 194 195 194 185 184 181 175 173 171 147 101 74 54 40 29 20 14 8 3 359 357 354 351 348 345 341 340 338 335 332 330 328 325 322 321 319 317 312 306 304 300 295
199 197 196 197 194 189 186 185 184 179 149 112 75 49 33 23 17 13 8 3 359 356 353 349 345 341 339 335 333 330 327 323 321 317 315 314 313 310 307 306 305 303 299
200 201 199 196 196 193 192 190 192 186 165 124 76 43 25 15 11 8 5 1 357 354 351 347 343 340 337 334 331 327 324 321 318 314 310 308 306 304 304 302 301 300 298
204 202 202 198 198 196 196 197 196 192 180 158 97 27 14 6 2 3 3 0 356 353 349 346 342 338 335 332 330 326 323 320 318 315 312 308 306 303 298 294 290 289 291
208 207 202 199 199 199 201 203 201 201 195 192 187 3 358 357 359 1 1 358 355 352 349 344 340 338 335 332 329 327 324 321 317 314 313 310 305 301 297 293 290 290 288
210 208 205 200 199 201 202 205 206 208 209 216 247 327 344 354 358 358 357 355 352 349 346 342 339 336 334 331 329 327 324 322 321 320 317 313 309 302 295 290 292 301 299
212 209 207 203 200 201 205 207 209 211 213 222 247 300 337 349 353 353 353 352 350 346 343 341 339 337 336 334 331 329 328 325 323 320 318 316 311 308 304 298 301 304 297
214 212 208 205 201 201 206 209 212 215 217 224 242 285 323 336 345 347 349 348 345 344 342 340 340 338 337 334 331 329 325 325 324 324 318 310 306 305 305 298 294 291 289
213 214 213 207 203 203 207 209 211 216 219 227 242 271 308 329 338 344 345 343 342 342 341 339 338 338 337 334 330 329 328 329 329 325 316 324 316 301 304 302 295 290 288
211 212 213 207 203 204 205 208 211 215 220 231 242 269 302 320 333 339 340 339 340 341 341 340 338 338 338 338 334 331 334 332 337 318 305 309 305 306 308 297 297 293 287
211 213 212 209 206 208 211 213 215 217 224 232 246 273 291 317 328 333 335 337 339 339 339 339 339 337 338 341 337 337 331 324 335 303 311 317 318 319 310 305 310 302 297
209 210 211 210 209 210 209 209 207 214 219 228 244 264 293 314 321 329 332 335 337 337 337 338 338 338 335 335 335 332 330 309 317 319 315 315 316 314 309 312 315 314 312
207 210 212 212 210 210 209 212 218 224 224 233 246 265 288 305 319 326 330 332 334 334 335 335 335 333 329 326 327 325 315 310 312 317 322 314 313 307 309 312 317 314 318
206 208 210 212 210 210 212 215 217 219 225 234 244 262 287 305 317 323 327 330 330 330 330 330 331 327 325 323 323 321 317 311 302 295 299 312 312 312 309 312 316 317 319
203 204 206 208 208 210 213 214 217 221 226 233 245 265 286 303 314 320 325 325 326 326 326 327 326 324 324 321 319 318 313 310 306 302 298 301 304 308 310 314 317 313 316
Height
1533 1534 1535 1537 1537 1538 1539 1540 1539 1539 1539 1539 1539 1538 1538 1538 1538 1538 1537 1537 1538 1538 1538 1538 1537 1536 1535 1535 1535 1534 1533 1534 1534 1533 1533 1533 1532 1533 1532 1532 1532 1532 1532
1529 1532 1533 1535 1536 1537 1538 1538 1538 1538 1538 1538 1538 1538 1537 1537 1537 1537 1537 1536 1536 1537 1536 1536 1535 1535 1534 1534 1534 1534 1533 1533 1533 1533 1532 1532 1532 1531 1530 1531 1532 1532 1531
1527 1531 1532 1533 1535 1536 1537 1537 1537 1537 1537 1537 1537 1537 1537 1537 1537 1537 1536 1535 1536 1535 1535 1534 1534 1533 1533 1532 1532 1532 1532 1531 1531 1531 1531 1531 1531 1530 1530 1529 1530 1530 1530
1526 1529 1530 1531 1534 1535 1535 1536 1536 1536 1535 1536 1537 1537 1537 1537 1537 1536 1535 1535 1535 1534 1534 1533 1532 1532 1531 1531 1530 1530 1529 1529 1528 1529 1528 1529 1529 1529 1529 1529 1528 1529 1529
1525 1528 1528 1531 1533 1533 1535 1536 1536 1535 1535 1535 1536 1536 1536 1536 1535 1534 1534 1534 1533 1532 1532 1531 1530 1530 1529 1528 1528 1527 1527 1526 1526 1525 1525 1526 1526 1526 1527 1527 1526 1526 1526
1524 1527 1528 1530 1532 1533 1533 1536 1536 1535 1535 1535 1535 1536 1535 1534 1534 1533 1533 1532 1532 1530 1530 1529 1528 1527 1526 1526 1525 1524 1523 1523 1523 1522 1523 1522 1522 1522 1523 1523 1523 1523 1523
1523 1526 1527 1529 1530 1533 1533 1535 1534 1534 1535 1535 1535 1535 1534 1534 1533 1533 1532 1532 1530 1529 1528 1527 1526 1525 1523 1523 1522 1521 1520 1520 1519 1518 1518 1518 1519 1519 1519 1519 1519 1519 1519
1521 1524 1526 1528 1529 1531 1532 1533 1533 1533 1534 1534 1535 1534 1534 1533 1533 1532 1531 1530 1528 1527 1526 1524 1523 1522 1521 1520 1518 1517 1517 1515 1515 1514 1514 1514 1515 1515 1515 1514 1514 1513 1513
1520 1522 1525 1526 1528 1529 1530 1531 1531 1533 1534 1534 1534 1534 1533 1531 1531 1530 1528 1527 1525 1524 1523 1521 1520 1519 1518 1516 1515 1513 1513 1512 1511 1510 1510 1510 1511 1511 1511 1510 1509 1508 1508
1518 1520 1523 1524 1526 1527 1528 1529 1531 1532 1533 1532 1532 1531 1530 1529 1529 1528 1527 1525 1524 1523 1521 1519 1517 1516 1515 1513 1512 1510 1509 1508 1507 1506 1506 1505 1505 1505 1505 1505 1504 1504 1503
1514 1517 1519 1521 1523 1525 1527 1528 1529 1530 1531 1530 1529 1529 1529 1528 1528 1527 1526 1524 1523 1521 1519 1516 1515 1512 1510 1508 1506 1505 1503 1502 1501 1500 1499 1499 1498 1498 1498 1498 1497 1497 1496
1508 1512 1516 1518 1521 1523 1524 1526 1527 1528 1528 1527 1527 1527 1528 1528 1527 1526 1525 1523 1521 1519 1516 1514 1512 1509 1508 1505 1504 1502 1500 1498 1497 1496 1494 1493 1492 1491 1491 1490 1489 1489 1488
1505 1509 1512 1515 1517 1520 1522 1524 1525 1525 1525 1526 1526 1526 1526 1526 1526 1524 1523 1521 1519 1516 1514 1512 1510 1507 1504 1502 1500 1498 1497 1495 1493 1492 1491 1489 1488 1486 1484 1483 1482 1481 1480
1501 1506 1509 1512 1514 1517 1519 1521 1522 1522 1523 1524 1524 1524 1525 1524 1524 1522 1521 1519 1517 1514 1512 1509 1506 1503 1501 1499 1496 1494 1492 1490 1488 1487 1486 1484 1483 1480 1478 1477 1475 1474 1473
1497 1501 1505 1508 1510 1513 1516 1517 1518 1519 1520 1521 1521 1522 1522 1522 1521 1520 1518 1516 1514 1511 1508 1505 1502 1500 1497 1495 1492 1490 1487 1485 1484 1481 1479 1478 1477 1474 1472 1470 1468 1466 1465
1492 1496 1501 1504 1507 1509 1512 1514 1515 1516 1517 1518 1519 1520 1520 1519 1518 1517 1515 1513 1510 1507 1504 1501 1498 1495 1493 1490 1488 1485 1483 1481 1479 1477 1474 1471 1470 1467 1464 1462 1460 1458 1456
1486 1491 1495 1499 1503 1505 1508 1510 1512 1513 1514 1515 1517 1517 1517 1517 1516 1514 1512 1510 1506 1503 1500 1498 1495 1492 1489 1486 1483 1481 1478 1476 1474 1472 1469 1465 1462 1460 1457 1454 1451 1450 1449
1481 1485 1490 1494 1497 1501 1504 1506 1508 1510 1512 1513 1514 1514 1514 1514 1513 1511 1509 1506 1503 1500 1496 1493 1490 1486 1483 1479 1477 1474 1472 1470 1469 1466 1463 1459 1455 1452 1450 1448 1446 1444 1442
1475 1480 1485 1488 1492 1496 1499 1502 1505 1507 1509 1510 1511 1512 1512 1511 1510 1508 1505 1503 1500 1497 1493 1489 1487 1482 1478 1475 1471 1468 1466 1464 1462 1459 1456 1452 1449 1447 1444 1442 1440 1437 1435
1469 1475 1480 1484 1489 1492 1495 1498 1501 1503 1505 1507 1509 1509 1509 1508 1507 1505 1502 1499 1496 1493 1490 1487 1483 1480 1476 1471 1466 1462 1459 1456 1455 1453 1449 1447 1445 1443 1440 1438 1435 1431 1428
1464 1468 1473 1478 1483 1487 1489 1492 1496 1498 1501 1503 1505 1505 1505 1504 1503 1501 1498 1496 1492 1489 1486 1483 1479 1475 1472 1467 1460 1454 1450 1450 1448 1447 1446 1444 1441 1438 1434 1430 1427 1423 1419
1454 1461 1467 1473 1478 1481 1486 1490 1494 1496 1498 1500 1501 1502 1502 1501 1499 1497 1494 1491 1488 1485 1483 1480 1477 1472 1470 1467 1462 1455 1445 1442 1443 1445 1441 1436 1432 1430 1427 1424 1420 1415 1411
1447 1453 1460 1467 1473 1477 1483 1487 1490 1491 1494 1496 1497 1499 1498 1497 1496 1493 1490 1487 1484 1480 1478 1476 1473 1470 1465 1465 1464 1463 1453 1444 1433 1431 1431 1429 1427 1424 1420 1416 1411 1407 1403
1440 1448 1455 1462 1467 1473 1478 1481 1484 1487 1489 1492 1494 1495 1495 1494 1492 1489 1486 1483 1480 1477 1475 1472 1470 1467 1465 1462 1461 1461 1459 1454 1446 1414 1420 1421 1421 1419 1414 1409 1404 1399 1395
1432 1439 1447 1456 1462 1467 1472 1477 1480 1483 1486 1489 1490 1491 1491 1490 1488 1485 1483 1480 1477 1475 1473 1470 1467 1465 1462 1459 1457 1454 1452 1450 1448 1444 1419 1410 1411 1410 1407 1403 1397 1392 1389
1426 1434 1441 1449 1455 1462 1467 1472 1476 1479 1482 1484 1486 1487 1487 1486 1484 1481 1479 1477 1475 1472 1469 1466 1463 1460 1458 1455 1453 1450 1447 1445 1440 1437 1429 1418 1411 1401 1399 1396 1391 1386 1383